Hot Springs, VA

8:41 PM EDT on June 22, 2017 (GMT -0400)
Ingalls

Weather History for KHSP - February, 2014

Change the Weather History Date:

Thursday, February 20, 2014

  Actual Average Record
Temperature  
Mean Temperature 44 °F -  
Max Temperature 51 °F 36 °F 60 °F (2017)
Min Temperature 37 °F 22 °F -11 °F (2015)
Degree Days  
Heating Degree Days 21    
Moisture  
Dew Point 28 °F    
Average Humidity 62    
Maximum Humidity 93    
Minimum Humidity 31    
Precipitation  
Precipitation 0.00 in - - ()
Sea Level Pressure  
Sea Level Pressure 30.11 in    
Wind  
Wind Speed 11 mph (South)    
Max Wind Speed 22 mph    
Max Gust Speed 31 mph    
Visibility 10 miles    
Events      
Averages and records for this station are not official NWS values.
T = Trace of Precipitation, MM = Missing Value Source: NWS Daily Summary

Daily Weather History Graph

Daily Weather History Graph

Search for Another Location

Airport or City:

Trip Planner

Search our weather history database for the weather conditions in past years. The results will help you decide how hot, cold, wet, or windy it might be!

Date:

Astronomy

Feb. 20, 2014 Rise Set
Actual Time 7:03 AM EST 6:03 PM EST
Civil Twilight 6:36 AM EST 6:30 PM EST
Nautical Twilight 6:05 AM EST 7:00 PM EST
Astronomical Twilight 5:35 AM EST 7:31 PM EST
Moon 11:49 PM EST (2/20) 9:50 AM EST (2/20)
Length of Visible Light 11h 53m
Length of Day
11h 00m
Waning Gibbous, 71% of the Moon is Illuminated
Feb 20
Waning Gibbous
Feb 22
Last Quarter
Mar 1
New
Mar 8
First Quarter
Mar 16
Full

Hourly Weather History & Observations

Time (EST) Temp. Windchill Dew Point Humidity Pressure Visibility Wind Dir Wind Speed Gust Speed Precip Events Conditions
12:17 AM 37.4 °F 29.8 °F 19.4 °F 48% 30.12 in 10.0 mi WNW 11.5 mph - N/A   Clear
12:35 AM 37.4 °F 30.3 °F 19.4 °F 48% 30.12 in 10.0 mi WNW 10.4 mph - N/A   Clear
1:06 AM 39.2 °F 35.9 °F 12.2 °F 33% 30.12 in 10.0 mi WNW 4.6 mph - N/A   Clear
1:21 AM 39.2 °F 33.6 °F 10.4 °F 31% 30.12 in 10.0 mi WNW 8.1 mph - N/A   Clear
1:35 AM 39.2 °F 34.2 °F 10.4 °F 31% 30.12 in 10.0 mi West 6.9 mph - N/A   Clear
1:55 AM 37.4 °F - 12.2 °F 36% 30.12 in 10.0 mi Calm Calm - N/A   Clear
2:05 AM 37.4 °F 34.9 °F 15.8 °F 41% 30.13 in 10.0 mi SSW 3.5 mph - N/A   Clear
2:15 AM 37.4 °F 33.8 °F 17.6 °F 45% 30.13 in 10.0 mi SW 4.6 mph - N/A   Clear
2:27 AM 39.2 °F 37.0 °F 17.6 °F 42% 30.13 in 10.0 mi South 3.5 mph - N/A   Clear
2:35 AM 37.4 °F 32.8 °F 19.4 °F 48% 30.14 in 10.0 mi SSE 5.8 mph - N/A   Clear
3:20 AM 37.4 °F 32.8 °F 21.2 °F 52% 30.15 in 10.0 mi South 5.8 mph - N/A   Clear
4:15 AM 37.4 °F 31.4 °F 21.2 °F 52% 30.17 in 10.0 mi South 8.1 mph - N/A   Scattered Clouds
4:27 AM 39.2 °F 33.0 °F 21.2 °F 49% 30.17 in 10.0 mi South 9.2 mph - N/A   Scattered Clouds
4:35 AM 39.2 °F 33.0 °F 21.2 °F 49% 30.17 in 10.0 mi South 9.2 mph - N/A   Scattered Clouds
4:42 AM 39.2 °F 32.5 °F 19.4 °F 45% 30.17 in 10.0 mi South 10.4 mph - N/A   Scattered Clouds
5:27 AM 39.2 °F 32.0 °F 21.2 °F 49% 30.17 in 10.0 mi South 11.5 mph - N/A   Scattered Clouds
5:47 AM 39.2 °F 33.0 °F 21.2 °F 49% 30.17 in 10.0 mi South 9.2 mph - N/A   Clear
6:07 AM 39.2 °F 33.0 °F 21.2 °F 49% 30.18 in 10.0 mi South 9.2 mph - N/A   Clear
6:27 AM 39.2 °F 33.6 °F 21.2 °F 49% 30.18 in 10.0 mi SSE 8.1 mph - N/A   Clear
6:46 AM 39.2 °F 32.0 °F 21.2 °F 49% 30.17 in 10.0 mi SSE 11.5 mph - N/A   Clear
7:23 AM 37.4 °F 30.3 °F 21.2 °F 52% 30.17 in 10.0 mi SSE 10.4 mph - N/A   Clear
7:46 AM 37.4 °F 29.8 °F 21.2 °F 52% 30.17 in 10.0 mi SE 11.5 mph 16.1 mph N/A   Clear
8:06 AM 37.4 °F 30.3 °F 23.0 °F 56% 30.17 in 10.0 mi SE 10.4 mph 19.6 mph N/A   Clear
8:26 AM 37.4 °F 28.9 °F 21.2 °F 52% 30.20 in 10.0 mi SSE 13.8 mph 19.6 mph N/A   Scattered Clouds
8:35 AM 37.4 °F 29.8 °F 23.0 °F 56% 30.18 in 10.0 mi SSE 11.5 mph 18.4 mph N/A   Scattered Clouds
8:46 AM 37.4 °F 29.3 °F 21.2 °F 52% - 10.0 mi SSE 12.7 mph 19.6 mph N/A   Scattered Clouds
8:55 AM 37.4 °F 28.9 °F 21.2 °F 52% 30.18 in 10.0 mi SE 13.8 mph 21.9 mph N/A   Clear
9:06 AM 37.4 °F 28.5 °F 21.2 °F 52% 30.18 in 10.0 mi SSE 15.0 mph 21.9 mph N/A   Clear
9:15 AM 37.4 °F 28.9 °F 21.2 °F 52% 30.18 in 10.0 mi SSE 13.8 mph 19.6 mph N/A   Clear
9:27 AM 39.2 °F 31.2 °F 21.2 °F 49% 30.17 in 10.0 mi SE 13.8 mph 19.6 mph N/A   Clear
9:35 AM 39.2 °F 31.2 °F 21.2 °F 49% 30.17 in 10.0 mi SE 13.8 mph 19.6 mph N/A   Clear
9:47 AM 39.2 °F 32.0 °F 21.2 °F 49% 30.18 in 10.0 mi SSE 11.5 mph - N/A   Clear
9:55 AM 39.2 °F 31.6 °F 21.2 °F 49% 30.17 in 10.0 mi SE 12.7 mph 17.3 mph N/A   Scattered Clouds
10:06 AM 39.2 °F 31.2 °F 23.0 °F 52% 30.16 in 10.0 mi SE 13.8 mph 19.6 mph N/A   Mostly Cloudy
10:15 AM 39.2 °F 31.6 °F 23.0 °F 52% 30.16 in 10.0 mi SE 12.7 mph 21.9 mph N/A   Overcast
10:35 AM 39.2 °F 31.6 °F 23.0 °F 52% 30.17 in 10.0 mi SE 12.7 mph 17.3 mph N/A   Mostly Cloudy
10:47 AM 39.2 °F 32.0 °F 24.8 °F 56% 30.17 in 10.0 mi SE 11.5 mph - N/A   Mostly Cloudy
10:55 AM 39.2 °F 33.0 °F 24.8 °F 56% 30.17 in 10.0 mi SE 9.2 mph - N/A   Overcast
11:15 AM 39.2 °F 33.0 °F 24.8 °F 56% 30.15 in 10.0 mi SSE 9.2 mph 18.4 mph N/A   Scattered Clouds
11:26 AM 39.2 °F 32.0 °F 24.8 °F 56% 30.15 in 10.0 mi SE 11.5 mph 18.4 mph N/A   Mostly Cloudy
11:47 AM 39.2 °F 31.6 °F 24.8 °F 56% 30.14 in 10.0 mi SE 12.7 mph - N/A   Mostly Cloudy
12:06 PM 39.2 °F 32.5 °F 24.8 °F 56% 30.14 in 10.0 mi SSE 10.4 mph - N/A   Overcast
12:27 PM 39.2 °F 31.6 °F 24.8 °F 56% 30.13 in 10.0 mi South 12.7 mph 20.7 mph N/A   Overcast
1:21 PM 39.2 °F 33.0 °F 26.6 °F 61% 30.10 in 10.0 mi SE 9.2 mph - N/A   Overcast
1:46 PM 41.0 °F 33.5 °F 32.0 °F 70% 30.08 in 10.0 mi South 13.8 mph 19.6 mph N/A   Mostly Cloudy
2:02 PM 42.8 °F 35.1 °F 35.6 °F 76% 30.08 in 10.0 mi SSW 16.1 mph 23.0 mph N/A   Mostly Cloudy
2:24 PM 42.8 °F 38.0 °F 35.6 °F 76% 30.06 in 10.0 mi SSE 8.1 mph 24.2 mph N/A   Unknown
2:46 PM 42.8 °F 36.6 °F 35.6 °F 76% 30.05 in 10.0 mi South 11.5 mph 31.1 mph N/A   Overcast
3:02 PM 41.0 °F 36.4 °F 35.6 °F 81% 30.05 in 10.0 mi SSE 6.9 mph 29.9 mph N/A   Overcast
3:23 PM 39.2 °F 33.6 °F 33.8 °F 81% 30.05 in 10.0 mi SSW 8.1 mph - N/A   Overcast
4:02 PM 42.8 °F 35.4 °F 39.2 °F 87% 30.05 in 7.0 mi SSW 15.0 mph 27.6 mph N/A   Overcast
4:27 PM 46.4 °F 39.0 °F 44.6 °F 93% 30.06 in 7.0 mi SSW 19.6 mph 29.9 mph N/A   Mostly Cloudy
4:47 PM 46.4 °F 39.8 °F 42.8 °F 87% 30.06 in 10.0 mi SSW 16.1 mph 29.9 mph N/A   Scattered Clouds
5:04 PM 44.6 °F 37.8 °F 42.8 °F 93% 30.06 in 10.0 mi SSW 15.0 mph 29.9 mph N/A   Clear
7:37 PM 44.6 °F 37.2 °F 42.8 °F 93% 30.03 in 10.0 mi South 17.3 mph 24.2 mph N/A   Clear
7:56 PM 46.4 °F 40.4 °F 42.8 °F 87% 30.04 in 10.0 mi South 13.8 mph 24.2 mph N/A   Clear
8:16 PM 48.2 °F - 46.4 °F 93% 30.03 in 10.0 mi South 18.4 mph 28.8 mph N/A   Clear
8:36 PM 50.0 °F - 46.4 °F 87% 30.03 in 10.0 mi SSW 19.6 mph 31.1 mph N/A   Clear
8:56 PM 50.0 °F - 46.4 °F 87% 30.03 in 10.0 mi SSW 18.4 mph 26.5 mph N/A   Clear
9:16 PM 50.0 °F - 46.4 °F 87% 30.03 in 10.0 mi SSW 15.0 mph 26.5 mph N/A   Clear
9:35 PM 48.2 °F - 46.4 °F 93% 30.03 in 10.0 mi SSW 17.3 mph 26.5 mph N/A   Clear
9:55 PM 50.0 °F - 46.4 °F 87% 30.02 in 10.0 mi SSW 19.6 mph 25.3 mph N/A   Unknown
10:17 PM 48.2 °F - 46.4 °F 93% 30.01 in 10.0 mi SSW 17.3 mph 24.2 mph N/A   Clear
10:36 PM 48.2 °F - 46.4 °F 93% 30.00 in 10.0 mi SSW 16.1 mph 24.2 mph N/A   Clear
10:56 PM 51.8 °F - 46.4 °F 82% 29.99 in 10.0 mi SSW 16.1 mph 31.1 mph N/A   Clear
11:16 PM 51.8 °F - 46.4 °F 82% 29.98 in 10.0 mi SSW 21.9 mph 31.1 mph N/A   Clear
11:36 PM 51.8 °F - 46.4 °F 82% 29.97 in 10.0 mi SSW 19.6 mph 28.8 mph N/A   Clear
11:56 PM 51.8 °F - 46.4 °F 82% 29.97 in 10.0 mi SSW 18.4 mph 25.3 mph N/A   Clear